Regional Weather Roundup
Issued by NWS

Current Version | Previous Version | Text Only | Print | Product List | Glossary On
Versions: 1 2 3 4 5 6 7 8 9 10 11 12 13 14 15 16 17 18 19 20 21 22 23 24 25 26 27 28 29 30 31 32 33 34 35 36 37 38 39 40 41 42 43 44 45 46 47 48 49 50
000
ASUS42 KFFC 230710
RWRGA
WEATHER ROUNDUP FOR GEORGIA
NATIONAL WEATHER SERVICE PEACHTREE CITY GA
300 AM EDT THU MAR 23 2017

NOTE: "FAIR" INDICATES FEW OR NO CLOUDS BELOW 12,000 FEET WITH NO
SIGNIFICANT WEATHER AND/OR OBSTRUCTIONS TO VISIBILITY.

* = USE WITH CAUTION. THE STATIONS MARKED WITH AN ASTERISK MAY NOT
REPORT WEATHER SUCH AS PRECIPITATION, FOG, OR THUNDER AND ARE NOT
QUALITY CONTROLLED BY NWS.

THE REMARK "TC" DENOTES TEMPERATURE READING IN DEGREES CELSIUS.

GAZ001>058-230800-
NORTH GEORGIA

CITY           SKY/WX    TMP DP  RH WIND       PRES   REMARKS
ATLANTA        PTCLDY    54  37  52 E12       30.30R
ATHENS         CLOUDY    52  33  48 E6        30.34S
CHAMBLEE       MOCLDY    54  32  43 VRB7      30.31R
PEACHTREE CITY CLOUDY    50  37  61 E5        30.30R
ROME           PTCLDY    43  34  70 CALM      30.30R
WEST ATLANTA   CLOUDY    49  36  61 E3        30.30R
GAINESVILLE    CLOUDY    51  31  46 E10       30.35R
CARTERSVILLE   PTCLDY    41  34  76 CALM      30.31R


CITY           SKY/WX    TMP DP  RH WIND       PRES   REMARKS
DALTON*        PTCLDY    41  30  65 CALM      30.31S
MARIETTA       MOCLDY    53  34  49 E10       30.30R
CANTON*        PTCLDY    52  23  32 E6        30.33R
$$

GAZ059>098-102>109-230800-
CENTRAL GEORGIA

CITY           SKY/WX    TMP DP  RH WIND       PRES   REMARKS
AUGUSTA-BUSH   PTCLDY    52  31  44 E7        30.34R
AUGUSTA-DANIEL MOCLDY    54  26  34 E8        30.34R
COLUMBUS       CLEAR     59  28  30 E5        30.25S
MACON          CLOUDY    61  35  37 E10       30.29R
ROBINS AFB     CLOUDY    62  36  38 E8        30.28R


CITY           SKY/WX    TMP DP  RH WIND       PRES   REMARKS
LAGRANGE*      CLEAR     52  32  46 CALM      30.27F
SYLVANIA*      CLOUDY   N/A N/A N/A E5        30.33R
MILLEDGEVILLE* CLOUDY    59  39  47 E6        30.32S
$$

GAZ099>101-110>166-230800-
SOUTH GEORGIA

CITY           SKY/WX    TMP DP  RH WIND       PRES   REMARKS
SAVANNAH       CLOUDY    59  50  72 E12       30.30R
VALDOSTA       PTCLDY    60  54  80 NE6       30.23S
ALMA           CLEAR     59  54  83 NE3       30.27R
ST SIMONS      MOCLDY    62  56  80 NE10      30.25R
FT STEWART     MOCLDY    58  52  78 NE9       30.26S
ALBANY         CLOUDY    65  52  62 E12       30.27R
HUNTER AFB     CLOUDY    60  53  80 E9        30.27R
MOODY AFB      PTCLDY    60  54  81 NE6       30.23S
BRUNSWICK      CLOUDY    63  59  88 NE9       30.27R


CITY           SKY/WX    TMP DP  RH WIND       PRES   REMARKS
BAINBRIDGE*    PTCLDY    68  50  52 E7        30.22S
MOULTRIE*      CLEAR     63  54  72 E6        30.24F
VIDALIA*       CLOUDY    59  50  72 E10       30.30S
WAYCROSS*      CLEAR     62  60  94 E7        30.26S
DOUGLAS*       PTCLDY    59  52  77 E7        30.28S
$$




USA.gov is the U.S. government's official web portal to all federal, state and local government web resources and services.